This is the latest recevied weather packets stored in our database for station/object KC1OEK-13. If no packets are shown the sender has not sent any weather packets the latest 10 day(s).
| Time | Temp. | Humidity | Pressure | Rain* | Wind** | Luminosity | Snow |
|---|---|---|---|---|---|---|---|
| 1777428511 | 11.67° C | 62% | 1020.1 hPa | 0 mm | - | 0 W/m² | - |
| 1777428207 | 11.67° C | 62% | 1020.1 hPa | 0 mm | - | 0 W/m² | - |
| 1777427902 | 12.22° C | 61% | 1020.1 hPa | 0 mm | - | 0 W/m² | - |
| 1777427598 | 12.22° C | 61% | 1020.1 hPa | 0 mm | - | 0 W/m² | - |
| 1777427296 | 12.22° C | 60% | 1020.4 hPa | 0 mm | - | 0 W/m² | - |
| 1777426993 | 12.22° C | 61% | 1020.2 hPa | 0 mm | - | 0 W/m² | - |
| 1777426690 | 12.22° C | 60% | 1020.1 hPa | 0 mm | - | 0 W/m² | - |
| 1777426386 | 12.22° C | 60% | 1020.1 hPa | 0 mm | - | 0 W/m² | - |
| 1777426082 | 12.78° C | 59% | 1019.9 hPa | 0 mm | - | 0 W/m² | - |
| 1777425777 | 12.78° C | 58% | 1020 hPa | 0 mm | - | 0 W/m² | - |
| 1777425472 | 12.78° C | 58% | 1020 hPa | 0 mm | - | 0 W/m² | - |
| 1777425168 | 12.78° C | 58% | 1019.9 hPa | 0 mm | - | 0 W/m² | - |
| 1777424865 | 13.33° C | 57% | 1019.9 hPa | 0 mm | - | 0 W/m² | - |
| 1777424561 | 13.33° C | 56% | 1020.1 hPa | 0 mm | - | 0 W/m² | - |
| 1777424256 | 13.33° C | 57% | 1019.8 hPa | 0 mm | - | 0 W/m² | - |
| 1777423953 | 13.33° C | 56% | 1019.8 hPa | 0 mm | - | 0 W/m² | - |
| 1777423649 | 13.89° C | 56% | 1019.8 hPa | 0 mm | - | 0 W/m² | - |
| 1777423345 | 13.89° C | 55% | 1019.7 hPa | 0 mm | - | 0 W/m² | - |
| 1777423040 | 14.44° C | 55% | 1019.5 hPa | 0 mm | - | 0 W/m² | - |
| 1777422736 | 15° C | 54% | 1019.4 hPa | 0 mm | - | 0 W/m² | - |
| 1777422436 | 15° C | 51% | 1019 hPa | 0 mm | - | 0 W/m² | - |
| 1777422131 | 15° C | 50% | 1019.1 hPa | 0 mm | - | 0 W/m² | - |
| 1777421830 | 15° C | 51% | 1019.1 hPa | 0 mm | - | 0 W/m² | - |
| 1777421526 | 15.56° C | 49% | 1019.2 hPa | 0 mm | - | 0 W/m² | - |
| 1777421222 | 15.56° C | 52% | 1019.2 hPa | 0 mm | - | 0 W/m² | - |
* Rain latest hour (hover to see other rain measurements)
** Current wind speed in m/s (hover to see current wind gust speed)